Location: Martley
(52.2333°N, 2.3667°W)
Time: 11:44:02
(UTC+00:00)

CZ-4 R/B - Pass Details

Date: 11 December 2019
Orbit: 532 x 598 km, 97.7° (Epoch: 19 January)

Event Time Altitude Azimuth Distance (km) Brightness Sun altitude
Rises 06:15:39 0° 29° (NNE) 2,701 5.0 -16.0°
Reaches altitude 10° 06:18:36 10° 54° (NE) 1,810 4.5 -15.6°
Maximum altitude 06:20:50 15° 89° (E) 1,535 4.6 -15.3°
Drops below altitude 10° 06:23:04 10° 124° (SE) 1,816 5.2 -15.0°
Sets 06:26:02 0° 149° (SSE) 2,716 5.7 -14.5°
